FW0277 Weather Reports


time (UTC)temp
F
wind
direction
speed
knots
gust
knots
rain 1hr
in
rain 24hr
in
rain mn
in
humidity
%
barometer
mb
20260906101516 70 107 0.0 0.0 0.00 0.00 0.00 97 1012.5
20260906100006 70 106 0.0 0.0 0.00 0.00 0.00 98 1012.3
20260906094506 70 97 0.0 0.0 0.00 0.00 0.00 97 1012.3
20260906093004 70 96 0.0 0.0 0.00 0.00 0.00 97 1012.3
20260906091504 70 96 0.0 0.0 0.00 0.00 0.00 97 1012.4
20260906090004 70 96 0.0 0.0 0.00 0.00 0.00 97 1012.4
20260906084503 69 113 0.0 0.0 0.00 0.00 0.00 97 1012.3
20260906083003 69 113 0.0 0.0 0.00 0.00 0.00 97 1012.3
20260906081501 69 117 0.0 0.0 0.00 0.00 0.00 96 1012.2
20260906080103 69 118 0.0 0.0 0.00 0.00 0.00 96 1012.1
20260906074558 70 117 0.0 0.0 0.00 0.00 0.00 96 1011.9
20260906073057 70 117 0.0 0.0 0.00 0.00 0.00 95 1011.8
20260906071600 71 335 0.0 0.0 0.00 0.00 0.00 96 1011.6
20260906070058 70 79 0.0 0.0 0.00 0.00 0.00 95 1011.7
20260906064554 70 79 0.0 0.0 0.00 0.00 0.00 95 1012.1
20260906063051 70 79 0.0 0.0 0.00 0.00 0.00 95 1012.5
20260906061551 70 95 0.0 0.0 0.00 0.00 0.00 94 1012.4
20260906060049 70 152 0.0 0.0 0.00 0.00 0.00 93 1012.5
20260906054559 70 152 0.0 0.0 0.00 0.00 0.00 93 1012.6
20260906053045 71 152 0.0 0.0 0.00 0.00 0.00 93 1012.6
20260906051603 71 152 0.0 0.0 0.00 0.00 0.00 92 1012.7
20260906050045 71 152 0.0 0.0 0.00 0.00 0.00 92 1012.8
20260906044550 71 152 0.0 0.0 0.00 0.00 0.00 92 1012.9
20260906043043 71 152 0.0 0.0 0.00 0.00 0.00 90 1012.9
20260906041537 72 152 0.0 0.0 0.00 0.00 0.00 90 1012.9
20260906040058 71 153 0.0 0.0 0.00 0.00 0.00 90 1012.9
20260906034533 72 153 0.0 0.0 0.00 0.00 0.00 89 1012.9
20260906033044 72 153 0.0 0.0 0.00 0.00 0.00 89 1013.1
20260906031531 72 153 0.0 0.0 0.00 0.00 0.00 89 1013.0
20260906030032 72 113 0.0 0.0 0.00 0.00 0.00 90 1012.9
20260906024531 73 112 0.0 0.0 0.00 0.00 0.00 90 1013.0
20260906023031 73 110 0.0 0.0 0.00 0.00 0.00 89 1012.7
20260906021530 73 103 0.0 0.0 0.00 0.00 0.00 88 1012.6
20260906020029 74 103 0.0 0.0 0.00 0.00 0.00 87 1012.5
20260906014530 75 102 0.0 0.0 0.00 0.00 0.00 86 1012.2
20260906013030 75 90 0.0 0.0 0.00 0.00 0.00 85 1012.4
20260906011528 75 103 0.0 0.0 0.00 0.00 0.00 84 1012.2
20260906010027 75 321 0.0 0.0 0.00 0.00 0.00 84 1012.0
20260906004527 75 127 0.0 0.0 0.00 0.00 0.00 82 1011.5
20260906003026 76 128 0.0 0.0 0.00 0.00 0.00 78 1011.6
20260906001526 78 109 0.0 0.0 0.00 0.00 0.00 74 1011.7
20260906000024 82 345 0.0 0.0 0.00 0.00 0.00 68 1011.7
20260905234524 87 84 0.0 0.0 0.00 0.00 0.00 75 1011.7
20260905233023 88 294 0.0 0.0 0.00 0.00 0.00 73 1011.5
20260905231523 88 295 0.0 0.0 0.00 0.00 0.00 72 1011.2
20260905230022 89 169 0.0 0.0 0.00 0.00 0.00 69 1011.3
20260905224553 92 169 0.0 0.0 0.00 0.00 0.00 64 1011.3
20260905223022 93 112 0.0 0.0 0.00 0.00 0.00 63 1011.2
20260905221520 91 221 0.0 0.0 0.00 0.00 0.00 65 1011.1
20260905220019 89 222 0.0 0.0 0.00 0.00 0.00 68 1011.3
20260905214517 89 169 0.0 0.0 0.00 0.00 0.00 67 1011.4
20260905213016 90 122 0.0 0.0 0.00 0.00 0.00 66 1011.6
20260905211535 89 229 0.0 0.0 0.00 0.00 0.00 71 1011.6
20260905210021 88 153 0.0 0.0 0.00 0.00 0.00 71 1011.7
20260905204513 87 186 0.0 0.0 0.00 0.00 0.00 74 1011.9
20260905203011 88 140 0.0 0.0 0.00 0.00 0.00 69 1011.9
20260905201510 90 165 0.0 0.0 0.00 0.00 0.00 65 1012.0
20260905200020 91 137 0.0 0.0 0.00 0.00 0.00 63 1012.1
20260905194508 94 89 0.0 0.0 0.00 0.00 0.00 59 1012.3
20260905193005 94 117 0.0 0.0 0.00 0.00 0.00 62 1012.5
20260905191502 92 250 0.0 0.0 0.00 0.00 0.00 64 1012.8
20260905190104 93 122 0.0 0.0 0.00 0.00 0.00 61 1013.1
20260905184603 93 316 0.0 0.0 0.00 0.00 0.00 64 1013.0
20260905183054 91 266 0.0 0.0 0.00 0.00 0.00 66 1013.2
20260905181553 89 36 0.0 0.0 0.00 0.00 0.00 71 1013.4
20260905174552 85 6 0.0 0.0 0.00 0.00 0.00 76 1014.1
20260905173106 85 310 0.0 0.0 0.00 0.00 0.00 76 1014.3
20260905171551 86 291 0.0 0.0 0.00 0.00 0.00 75 1014.1
20260905164556 90 328 0.0 0.0 0.00 0.00 0.00 65 1014.5
20260905163048 92 347 0.0 0.0 0.00 0.00 0.00 64 1014.3
20260905161602 91 352 0.0 0.0 0.00 0.00 0.00 68 1014.4
20260905160044 91 91 0.0 0.0 0.00 0.00 0.00 69 1014.4
20260905154539 89 95 0.0 0.0 0.00 0.00 0.00 72 1014.4
20260905153037 88 309 0.0 0.0 0.00 0.00 0.00 74 1014.4
20260905151534 87 183 0.0 0.0 0.00 0.00 0.00 75 1014.5
20260905150030 86 256 0.0 0.0 0.00 0.00 0.00 77 1014.6
20260905144526 83 272 0.0 0.0 0.00 0.00 0.00 81 1014.7
20260905143023 82 296 0.0 0.0 0.00 0.00 0.00 80 1014.8
20260905141522 82 199 0.0 0.0 0.00 0.00 0.00 81 1014.7
20260905140022 82 174 0.0 0.0 0.00 0.00 0.00 80 1014.9
20260905134520 82 121 0.0 0.0 0.00 0.00 0.00 82 1014.7
20260905133024 81 215 0.0 0.0 0.00 0.00 0.00 83 1014.9
20260905131520 80 129 0.0 0.0 0.00 0.00 0.00 85 1015.0
20260905130011 79 124 0.0 0.0 0.00 0.00 0.00 85 1015.2
20260905124508 79 134 0.0 0.0 0.00 0.00 0.00 90 1015.2
20260905123005 75 158 0.0 0.0 0.00 0.00 0.00 95 1015.2
20260905121504 73 12 0.0 0.0 0.00 0.00 0.00 96 1015.1
20260905120002 72 346 0.0 0.0 0.00 0.00 0.00 95 1014.9
20260905114502 72 301 0.0 0.0 0.00 0.00 0.00 94 1014.6
20260905113059 72 301 0.0 0.0 0.00 0.00 0.00 94 1014.3
20260905111559 72 301 0.0 0.0 0.00 0.00 0.00 93 1014.3
20260905110058 72 301 0.0 0.0 0.00 0.00 0.00 93 1014.2
20260905104556 73 301 0.0 0.0 0.00 0.00 0.00 92 1014.0
20260905103058 73 305 0.0 0.0 0.00 0.00 0.00 93 1013.8